Fort Madison, IA

12:21 PM CDT on March 25, 2017 (GMT -0500)
Fort Madison Municipal

Weather History for KFSW - September, 2014

Change the Weather History Date:

Friday, September 5, 2014

  Actual Average Record
Temperature  
Mean Temperature 73 °F -  
Max Temperature 84 °F 80 °F 97 °F (1990)
Min Temperature 62 °F 58 °F 44 °F (1962)
Cooling Degree Days 8    
Growing Degree Days 23 (Base 50)    
Moisture  
Dew Point 67 °F    
Average Humidity 78    
Maximum Humidity 94    
Minimum Humidity 60    
Precipitation  
Precipitation 0.00 in - - ()
Sea Level Pressure  
Sea Level Pressure 30.04 in    
Wind  
Wind Speed 7 mph (West)    
Max Wind Speed 20 mph    
Max Gust Speed 28 mph    
Visibility 10 miles    
Events Rain    
Averages and records for this station are not official NWS values.
T = Trace of Precipitation, MM = Missing Value Source: NWS Daily Summary

Daily Weather History Graph

Daily Weather History Graph

Search for Another Location

Airport or City:

Trip Planner

Search our weather history database for the weather conditions in past years. The results will help you decide how hot, cold, wet, or windy it might be!

Date:

Astronomy

Sep. 05, 2014 Rise Set
Actual Time 6:36 AM CDT 7:30 PM CDT
Civil Twilight 6:08 AM CDT 7:58 PM CDT
Nautical Twilight 5:35 AM CDT 8:31 PM CDT
Astronomical Twilight 5:00 AM CDT 9:05 PM CDT
Moon 5:00 PM CDT (9/5) 2:29 AM CDT (9/5)
Length of Visible Light 13h 50m
Length of Day
12h 54m
Waxing Gibbous, 84% of the Moon is Illuminated
Sep 5
Waxing Gibbous
Sep 8
Full
Sep 15
Last Quarter
Sep 24
New
Oct 1
First Quarter

Hourly Weather History & Observations

Time (CDT) Temp. Heat Index Dew Point Humidity Pressure Visibility Wind Dir Wind Speed Gust Speed Precip Events Conditions
12:15 AM 80.6 °F 85.4 °F 73.4 °F 79% 29.96 in 10.0 mi SSW 6.9 mph - N/A   Clear
12:35 AM 80.6 °F 85.4 °F 73.4 °F 79% 29.96 in 10.0 mi South 6.9 mph - N/A   Clear
12:55 AM 80.6 °F 85.4 °F 73.4 °F 79% 29.96 in 10.0 mi SSW 8.1 mph - N/A   Clear
1:15 AM 80.6 °F 85.4 °F 73.4 °F 79% 29.96 in 10.0 mi SSW 5.8 mph - N/A   Clear
1:35 AM 80.6 °F 85.4 °F 73.4 °F 79% 29.96 in 7.0 mi South 6.9 mph - N/A   Clear
1:55 AM 80.6 °F 85.4 °F 73.4 °F 79% 29.96 in 10.0 mi SSW 6.9 mph - N/A   Clear
2:15 AM 80.6 °F 85.4 °F 73.4 °F 79% 29.96 in 10.0 mi SSW 6.9 mph - N/A   Scattered Clouds
2:35 AM 80.6 °F 84.6 °F 71.6 °F 74% 29.96 in 10.0 mi SSW 8.1 mph - N/A   Mostly Cloudy
2:55 AM 80.6 °F 84.6 °F 71.6 °F 74% 29.96 in 10.0 mi SSW 8.1 mph - N/A   Overcast
3:15 AM 80.6 °F 84.6 °F 71.6 °F 74% 29.96 in 10.0 mi SSW 8.1 mph - N/A   Scattered Clouds
3:35 AM 80.6 °F 84.6 °F 71.6 °F 74% 29.96 in 10.0 mi SSW 6.9 mph - N/A   Scattered Clouds
3:55 AM 78.8 °F - 71.6 °F 78% 29.96 in 10.0 mi SSW 5.8 mph - N/A   Mostly Cloudy
4:15 AM 78.8 °F - 71.6 °F 78% 29.96 in 10.0 mi SSW 6.9 mph - N/A   Mostly Cloudy
4:35 AM 78.8 °F - 71.6 °F 78% 29.97 in 10.0 mi SSW 8.1 mph - N/A   Scattered Clouds
4:55 AM 78.8 °F - 71.6 °F 78% 29.97 in 10.0 mi SW 6.9 mph - N/A   Scattered Clouds
5:15 AM 78.8 °F - 71.6 °F 78% 29.97 in 10.0 mi SW 6.9 mph - N/A   Scattered Clouds
5:35 AM 77.0 °F - 71.6 °F 83% 29.97 in 10.0 mi SW 5.8 mph - N/A   Scattered Clouds
5:55 AM 77.0 °F - 71.6 °F 83% 29.98 in 10.0 mi SW 4.6 mph - N/A   Scattered Clouds
6:15 AM 75.2 °F - 71.6 °F 89% 29.99 in 10.0 mi Calm Calm - N/A   Clear
6:35 AM 75.2 °F - 71.6 °F 89% 29.99 in 10.0 mi SW 3.5 mph - N/A   Clear
6:55 AM 75.2 °F - 71.6 °F 89% 30.00 in 10.0 mi SSW 3.5 mph - N/A   Clear
7:15 AM 77.0 °F - 71.6 °F 83% 30.00 in 10.0 mi SW 4.6 mph - N/A   Clear
7:35 AM 77.0 °F - 71.6 °F 83% 30.01 in 10.0 mi SW 4.6 mph - N/A   Clear
7:55 AM 77.0 °F - 73.4 °F 89% 30.02 in 10.0 mi SW 5.8 mph - N/A   Scattered Clouds
8:15 AM 78.8 °F - 71.6 °F 78% 30.01 in 10.0 mi SW 3.5 mph - N/A   Scattered Clouds
8:35 AM 78.8 °F - 73.4 °F 83% 30.02 in 10.0 mi SW 5.8 mph - N/A   Scattered Clouds
8:55 AM 80.6 °F 85.4 °F 73.4 °F 79% 30.02 in 10.0 mi WSW 5.8 mph - N/A   Scattered Clouds
9:15 AM 80.6 °F 85.4 °F 73.4 °F 79% 30.02 in 10.0 mi West 8.1 mph - N/A   Scattered Clouds
9:35 AM 78.8 °F - 73.4 °F 83% 30.04 in 10.0 mi NW 11.5 mph 17.3 mph N/A   Mostly Cloudy
9:55 AM 78.8 °F - 73.4 °F 83% 30.04 in 10.0 mi North 11.5 mph - N/A   Overcast
10:15 AM 75.2 °F - 71.6 °F 89% 30.04 in 10.0 mi NNW 10.4 mph - N/A   Overcast
10:35 AM 75.2 °F - 66.2 °F 73% 30.06 in 10.0 mi NNW 8.1 mph - N/A   Overcast
11:15 AM 75.2 °F - 66.2 °F 73% 30.06 in 10.0 mi North 3.5 mph - N/A   Overcast
11:35 AM 75.2 °F - 64.4 °F 69% 30.06 in 10.0 mi Calm Calm - N/A   Overcast
11:55 AM 77.0 °F - 64.4 °F 65% 30.04 in 10.0 mi Calm Calm - N/A   Overcast
12:15 PM 78.8 °F - 64.4 °F 61% 30.04 in 10.0 mi Calm Calm - N/A   Overcast
12:35 PM 78.8 °F - 66.2 °F 65% 30.03 in 10.0 mi Calm Calm - N/A   Overcast
12:55 PM 80.6 °F 82.7 °F 66.2 °F 61% 30.03 in 10.0 mi NNW 3.5 mph - N/A   Scattered Clouds
1:15 PM 82.4 °F 86.3 °F 69.8 °F 66% 30.03 in 10.0 mi Calm Calm - N/A   Clear
1:35 PM 82.4 °F 86.3 °F 69.8 °F 66% 30.03 in 10.0 mi Calm Calm - N/A   Clear
1:55 PM 84.2 °F 88.4 °F 69.8 °F 62% 30.03 in 10.0 mi NW 6.9 mph - N/A   Scattered Clouds
2:15 PM 82.4 °F 85.4 °F 68.0 °F 62% 30.04 in 10.0 mi West 6.9 mph - N/A   Overcast
2:35 PM 80.6 °F 83.2 °F 68.0 °F 65% 30.04 in 10.0 mi NW 9.2 mph 16.1 mph N/A   Overcast
2:55 PM 78.8 °F - 66.2 °F 65% 30.05 in 10.0 mi NW 13.8 mph 19.6 mph N/A   Overcast
3:15 PM 75.2 °F - 62.6 °F 65% 30.06 in 10.0 mi NW 12.7 mph 21.9 mph N/A   Overcast
3:35 PM 73.4 °F - 59.0 °F 61% 30.08 in 10.0 mi NW 17.3 mph 24.2 mph N/A   Overcast
3:55 PM 71.6 °F - 59.0 °F 64% 30.07 in 10.0 mi NNW 13.8 mph 25.3 mph N/A   Overcast
4:15 PM 71.6 °F - 57.2 °F 60% 30.04 in 10.0 mi NNW 19.6 mph 27.6 mph N/A   Scattered Clouds
4:35 PM 68.0 °F - 57.2 °F 68% 30.05 in 10.0 mi North 9.2 mph 20.7 mph N/A   Mostly Cloudy
5:15 PM 64.4 °F - 57.2 °F 77% 30.06 in 10.0 mi North 11.5 mph 18.4 mph N/A   Overcast
5:35 PM 64.4 °F - 57.2 °F 77% 30.05 in 10.0 mi North 11.5 mph 16.1 mph N/A   Overcast
5:55 PM 64.4 °F - 57.2 °F 77% 30.07 in 10.0 mi NNW 9.2 mph - N/A   Overcast
6:15 PM 66.2 °F - 57.2 °F 73% 30.06 in 10.0 mi North 10.4 mph - N/A   Overcast
6:35 PM 64.4 °F - 57.2 °F 77% 30.08 in 10.0 mi North 9.2 mph - N/A   Overcast
6:55 PM 64.4 °F - 57.2 °F 77% 30.09 in 10.0 mi NNW 8.1 mph - N/A   Scattered Clouds
7:15 PM 64.4 °F - 57.2 °F 77% 30.11 in 10.0 mi NW 9.2 mph - N/A Rain Light Rain
7:35 PM 62.6 °F - 57.2 °F 82% 30.13 in 10.0 mi NW 6.9 mph - N/A   Overcast
7:55 PM 62.6 °F - 59.0 °F 88% 30.13 in 10.0 mi NW 4.6 mph - N/A   Mostly Cloudy
8:15 PM 62.6 °F - 59.0 °F 88% 30.11 in 10.0 mi NNW 5.8 mph - N/A   Scattered Clouds
8:35 PM 62.6 °F - 60.8 °F 94% 30.12 in 10.0 mi NW 5.8 mph - N/A   Clear
9:15 PM 62.6 °F - 60.8 °F 94% 30.13 in 10.0 mi NW 3.5 mph - N/A   Clear
9:35 PM 62.6 °F - 60.8 °F 94% 30.14 in 10.0 mi NW 3.5 mph - N/A   Mostly Cloudy
9:55 PM 62.6 °F - 60.8 °F 94% 30.16 in 10.0 mi WNW 5.8 mph - N/A   Scattered Clouds
10:15 PM 62.6 °F - 60.8 °F 94% 30.17 in 10.0 mi WNW 5.8 mph - N/A   Mostly Cloudy
10:35 PM 62.6 °F - 60.8 °F 94% 30.17 in 10.0 mi NW 5.8 mph - N/A   Overcast
11:15 PM 62.6 °F - 60.8 °F 94% 30.17 in 10.0 mi NW 9.2 mph - N/A   Overcast
11:35 PM 62.6 °F - 59.0 °F 88% 30.17 in 10.0 mi NNW 5.8 mph - N/A   Mostly Cloudy
11:55 PM 62.6 °F - 57.2 °F 82% 30.18 in 10.0 mi NW 6.9 mph - N/A   Scattered Clouds